Terug naar catalogus

ONEWEB-0377

ActiefCommunicatiePO
NORAD 49303·PAYLOAD·🇬🇧 United Kingdom

Gelanceerd Oct 14, 2021 vanaf Vostochny Cosmodrome

Loading…

Volgende Passages (komende 24 uur)

TLE

VersSource: CelesTrak SupGP

Epoch: Sep 14, 2026, 19:10 UTC

1 49303C 21090AA  26257.79878889  .00001768  00000+0  43540-2 0  2573
2 49303  87.9137 256.5602 0002239  96.2326 340.1313 13.20768123    15

Volg ONEWEB-0377 in realtime met AllMySat

Download on the App Store